User: anonymous   Login
Location: Newark
(40.4500°N, 15.1500°E)
Time: 13:27:55
(UTC+00:00)
Language:

PicSat - Orbit

View from above orbital plane
View from above orbital plane
View from above satellite
View from above satellite

Ground track
Ground track

The orbit data is extracted from the following two-line orbital elements,

1 43131U 18004W   20048.78998884 +.00001444 +00000-0 +60965-4 0  9993
2 43131 097.4619 121.3108 0010790 112.9585 247.2792 15.24856197116700
Epoch (UTC): 17 February 2020 18:57:35
Eccentricity: 0.0010790
inclination: 97.4619°
perigee height: 484 km
apogee height: 498 km
right ascension of ascending node: 121.3108°
argument of perigee: 112.9585°
revolutions per day: 15.24856197
mean anomaly at epoch: 247.2792°
orbit number at epoch: 11670

The dashed part of the orbit path shows where the satellite is in the earth's shadow,  

DLR